GW6305 Weather Reports


time (UTC)temp
F
wind
direction
speed
knots
gust
knots
rain 1hr
in
rain 24hr
in
rain mn
in
humidity
%
barometer
mb
20260504110537 35 65 0.0 0.0 0.00 0.00 0.00 89 1011.7
20260504100453 35 164 0.0 0.0 0.00 0.00 0.00 91 1011.7
20260504081846 38 164 0.0 0.0 0.00 0.00 0.00 85 1012.0
20260504081343 38 164 0.0 0.0 0.00 0.00 0.00 85 1011.9
20260504080838 39 164 0.0 0.0 0.00 0.00 0.00 86 1012.1
20260504080336 39 164 0.0 0.0 0.00 0.00 0.00 87 1011.9
20260504070303 39 164 0.0 0.0 0.00 0.00 0.00 85 1011.8
20260504060224 40 164 0.0 0.0 0.00 0.00 0.00 79 1011.6
20260504050651 41 164 0.0 0.0 0.00 0.00 0.00 80 1011.8
20260504050148 41 164 0.0 0.0 0.00 0.00 0.00 81 1011.9
20260504045646 41 164 0.0 0.0 0.00 0.00 0.00 81 1011.6
20260504045146 41 164 0.0 0.0 0.00 0.00 0.00 80 1011.8
20260504044644 41 164 0.0 0.0 0.00 0.00 0.00 79 1012.0
20260504044140 41 164 0.0 0.0 0.00 0.00 0.00 79 1011.9
20260504043637 42 164 0.0 0.0 0.00 0.00 0.00 78 1011.8
20260504043135 42 164 0.0 0.0 0.00 0.00 0.00 78 1011.7
20260504042632 42 164 0.0 0.0 0.00 0.00 0.00 79 1011.5
20260504042128 42 164 0.0 0.0 0.00 0.00 0.00 79 1011.9
20260504041624 43 164 0.0 0.0 0.00 0.00 0.00 81 1011.6
20260504041120 43 164 0.0 0.0 0.00 0.00 0.00 80 1011.7
20260504040618 43 164 0.0 0.0 0.00 0.00 0.00 77 1011.7
20260504040114 43 164 0.0 0.0 0.00 0.00 0.00 79 1011.6
20260504035611 43 164 0.0 0.0 0.00 0.00 0.00 79 1011.5
20260504035108 43 164 0.0 0.0 0.00 0.00 0.00 77 1011.6
20260504034606 44 164 0.0 0.0 0.00 0.00 0.00 78 1011.6
20260504034102 44 164 0.0 0.0 0.00 0.00 0.00 78 1011.5
20260504033600 44 164 0.0 0.0 0.00 0.00 0.00 76 1011.5
20260504033057 44 164 0.0 0.0 0.00 0.00 0.00 75 1011.6
20260504032554 44 164 0.0 0.0 0.00 0.00 0.00 73 1011.5
20260504032051 44 164 0.0 0.0 0.00 0.00 0.00 75 1011.4
20260504031548 45 164 0.0 0.0 0.00 0.00 0.00 73 1011.4
20260504031044 45 164 0.0 0.0 0.00 0.00 0.00 74 1011.5
20260504030542 46 164 0.0 0.0 0.00 0.00 0.00 73 1011.4
20260504030037 46 164 0.0 0.0 0.00 0.00 0.00 72 1011.3
20260504025535 46 164 0.0 0.0 0.00 0.00 0.00 60 1011.2
20260504025031 46 164 0.0 0.0 0.00 0.00 0.00 58 1011.4
20260504024529 46 164 0.0 0.0 0.00 0.00 0.00 58 1011.4
20260504024025 46 164 0.0 0.0 0.00 0.00 0.00 58 1011.4
20260504023522 46 164 0.0 0.0 0.00 0.00 0.00 55 1011.5
20260504023018 47 164 0.0 0.0 0.00 0.00 0.00 55 1011.4
20260504022514 47 164 0.0 0.0 0.00 0.00 0.00 55 1011.5
20260504022011 47 164 0.0 0.0 0.00 0.00 0.00 55 1011.5
20260504021509 47 164 0.0 0.0 0.00 0.00 0.00 55 1011.6
20260504021006 47 164 0.0 0.0 0.00 0.00 0.00 55 1011.6
20260504020502 47 164 0.0 0.0 0.00 0.00 0.00 54 1011.4
20260504015958 48 164 0.0 0.0 0.00 0.00 0.00 53 1011.5
20260504015454 48 164 0.0 0.0 0.00 0.00 0.00 53 1011.3
20260504014950 48 164 0.0 0.0 0.00 0.00 0.00 52 1011.5
20260504014447 48 164 0.0 0.0 0.00 0.00 0.00 53 1011.4
20260504013943 48 164 0.0 0.0 0.00 0.00 0.00 53 1011.2
20260504013442 48 164 0.0 0.0 0.00 0.00 0.00 53 1011.4
20260504012938 49 164 0.0 0.0 0.00 0.00 0.00 51 1011.2
20260504012436 49 164 0.0 0.0 0.00 0.00 0.00 51 1011.3
20260504011933 49 164 0.0 0.0 0.00 0.00 0.00 51 1010.9
20260504011430 49 164 0.0 0.0 0.00 0.00 0.00 51 1011.2
20260504010926 49 164 0.0 0.0 0.00 0.00 0.00 50 1011.0
20260504010422 49 164 0.0 0.0 0.00 0.00 0.00 50 1010.8
20260504005918 49 164 0.0 0.0 0.00 0.00 0.00 48 1011.1
20260504005415 49 164 0.0 0.0 0.00 0.00 0.00 50 1010.9
20260504004913 50 164 0.0 0.0 0.00 0.00 0.00 50 1010.8
20260504004410 50 164 0.0 0.0 0.00 0.00 0.00 50 1010.8
20260504003907 50 164 0.0 0.0 0.00 0.00 0.00 48 1010.9
20260504003403 51 164 0.0 0.0 0.00 0.00 0.00 47 1010.7
20260504002900 51 164 0.0 0.0 0.00 0.00 0.00 45 1010.9
20260504002357 52 164 0.0 0.0 0.00 0.00 0.00 45 1010.9
20260504001855 52 164 0.0 0.0 0.00 0.00 0.00 46 1010.5
20260504001352 52 164 0.0 0.0 0.00 0.00 0.00 45 1010.6
20260504000848 53 164 0.0 0.0 0.00 0.00 0.00 42 1010.6
20260504000346 53 164 0.0 0.0 0.00 0.00 0.00 41 1010.7
20260503235843 53 159 0.0 0.0 0.00 0.00 0.00 43 1010.7
20260503235341 54 159 0.0 0.0 0.00 0.00 0.00 41 1010.5
20260503234838 54 159 0.0 0.0 0.00 0.00 0.00 41 1010.5
20260503234336 55 263 0.9 0.9 0.00 0.00 0.00 39 1010.4
20260503233833 55 263 0.0 1.7 0.00 0.00 0.00 37 1010.3
20260503233329 55 329 0.0 1.7 0.00 0.00 0.00 36 1010.4
20260503232825 55 265 0.0 0.9 0.00 0.00 0.00 37 1010.3
20260503232323 56 310 1.7 1.7 0.00 0.00 0.00 36 1010.1
20260503231821 56 334 0.9 2.6 0.00 0.00 0.00 36 1010.1
20260503231318 56 270 0.9 2.6 0.00 0.00 0.00 35 1010.4
20260503230813 56 304 0.9 2.6 0.00 0.00 0.00 35 1010.1
20260503230311 57 59 0.0 5.2 0.00 0.00 0.00 36 1010.1
20260503225808 57 93 0.9 1.7 0.00 0.00 0.00 35 1010.3
20260503225304 57 325 1.7 1.7 0.00 0.00 0.00 36 1010.0
20260503224800 57 351 2.6 3.5 0.00 0.00 0.00 34 1009.9
20260503224258 57 353 0.9 3.5 0.00 0.00 0.00 35 1010.3
20260503223755 57 352 1.7 1.7 0.00 0.00 0.00 35 1009.9
20260503223253 57 332 2.6 6.1 0.00 0.00 0.00 34 1010.0
20260503222749 58 353 2.6 3.5 0.00 0.00 0.00 33 1009.9
20260503222247 58 334 1.7 3.5 0.00 0.00 0.00 34 1010.0
20260503221745 58 346 2.6 6.1 0.00 0.00 0.00 33 1010.1
20260503221243 57 300 1.7 5.2 0.00 0.00 0.00 34 1010.1
20260503220739 57 349 1.7 6.1 0.00 0.00 0.00 34 1009.9
20260503220236 57 294 0.9 2.6 0.00 0.00 0.00 34 1010.0
20260503215732 57 344 3.5 5.2 0.00 0.00 0.00 33 1010.1
20260503215230 57 250 2.6 5.2 0.00 0.00 0.00 33 1010.1
20260503214728 58 356 2.6 3.5 0.00 0.00 0.00 33 1010.1
20260503214224 58 8 3.5 3.5 0.00 0.00 0.00 33 1010.0
20260503213722 59 311 0.9 5.2 0.00 0.00 0.00 33 1009.8
20260503213219 59 277 3.5 3.5 0.00 0.00 0.00 32 1009.6
20260503212716 59 359 3.5 3.5 0.00 0.00 0.00 33 1009.8
20260503212214 58 342 2.6 3.5 0.00 0.00 0.00 33 1009.7
20260503211711 59 331 2.6 3.5 0.00 0.00 0.00 33 1009.7
20260503211207 59 153 1.7 3.5 0.00 0.00 0.00 33 1009.8
20260503210703 58 2 0.9 1.7 0.00 0.00 0.00 34 1009.6
20260503210200 58 6 1.7 11.3 0.00 0.00 0.00 32 1009.5
20260503205655 59 349 1.7 3.5 0.00 0.00 0.00 32 1009.5
20260503205152 59 301 1.7 6.1 0.00 0.00 0.00 32 1009.7
20260503204649 58 340 5.2 6.1 0.00 0.00 0.00 31 1009.6
20260503204146 58 322 1.7 5.2 0.00 0.00 0.00 32 1009.6
20260503203643 58 287 1.7 8.7 0.00 0.00 0.00 31 1009.6
20260503203141 58 285 1.7 5.2 0.00 0.00 0.00 32 1009.7
20260503202638 58 308 2.6 2.6 0.00 0.00 0.00 31 1009.7
20260503202136 58 334 1.7 6.1 0.00 0.00 0.00 30 1010.0
20260503201634 58 347 1.7 2.6 0.00 0.00 0.00 32 1009.8
20260503201131 59 329 1.7 5.2 0.00 0.00 0.00 31 1009.7
20260503200627 59 285 1.7 7.0 0.00 0.00 0.00 31 1009.7
20260503200124 59 3 5.2 7.0 0.00 0.00 0.00 29 1009.6
20260503195621 58 349 6.1 7.8 0.00 0.00 0.00 29 1009.8
20260503195118 57 333 3.5 7.0 0.00 0.00 0.00 32 1009.9
20260503194615 56 308 2.6 5.2 0.00 0.00 0.00 32 1010.0
20260503194109 57 335 3.5 6.1 0.00 0.00 0.00 31 1010.0
20260503193607 56 313 2.6 7.8 0.00 0.00 0.00 31 1010.3
20260503193102 57 351 5.2 6.1 0.00 0.00 0.00 29 1010.5
20260503192558 58 356 3.5 7.0 0.00 0.00 0.00 30 1010.3
20260503192054 57 312 0.9 2.6 0.00 0.00 0.00 30 1010.4
20260503191551 58 359 5.2 7.0 0.00 0.00 0.00 30 1010.4
20260503191048 58 273 0.9 3.5 0.00 0.00 0.00 34 1010.5
20260503190544 57 295 2.6 3.5 0.00 0.00 0.00 32 1010.6
20260503190042 56 358 1.7 7.0 0.00 0.00 0.00 31 1010.7
20260503185538 57 299 3.5 7.0 0.00 0.00 0.00 31 1011.0
20260503185038 57 353 0.9 6.1 0.00 0.00 0.00 31 1010.6
20260503184534 56 355 1.7 5.2 0.00 0.00 0.00 32 1010.8
20260503184031 57 355 1.7 3.5 0.00 0.00 0.00 30 1010.9
20260503183528 57 330 3.5 6.1 0.00 0.00 0.00 32 1010.9
20260503183025 57 321 5.2 7.8 0.00 0.00 0.00 30 1011.1
20260503182523 57 338 5.2 6.1 0.00 0.00 0.00 33 1010.9
20260503182021 57 194 1.7 5.2 0.00 0.00 0.00 32 1011.2
20260503181518 56 304 0.0 2.6 0.00 0.00 0.00 33 1011.0
20260503181014 55 265 3.5 3.5 0.00 0.00 0.00 34 1011.3
20260503180511 55 344 3.5 8.7 0.00 0.00 0.00 32 1010.9
20260503180008 54 284 3.5 6.1 0.00 0.00 0.00 35 1011.1
20260503175506 54 344 1.7 5.2 0.00 0.00 0.00 34 1011.2
20260503175002 52 358 1.7 2.6 0.00 0.00 0.00 35 1011.3
20260503174500 52 29 4.3 6.1 0.00 0.00 0.00 34 1011.5
20260503173955 52 276 1.7 3.5 0.00 0.00 0.00 35 1011.2
20260503173451 53 330 5.2 7.0 0.00 0.00 0.00 36 1011.4
20260503172948 52 319 1.7 6.1 0.00 0.00 0.00 35 1011.6
20260503172446 52 349 1.7 7.8 0.00 0.00 0.00 34 1011.6
20260503171942 52 317 2.6 6.1 0.00 0.00 0.00 35 1011.6
20260503171439 53 338 1.7 2.6 0.00 0.00 0.00 35 1011.5
20260503170936 53 11 3.5 5.2 0.00 0.00 0.00 35 1011.5
20260503170432 53 9 5.2 7.0 0.00 0.00 0.00 33 1011.8
20260503150825 48 353 6.1 7.0 0.00 0.00 0.00 38 1012.4
20260503150321 47 8 2.6 5.2 0.00 0.00 0.00 39 1012.2
20260503140245 46 9 4.3 7.0 0.00 0.00 0.00 46 1012.3
20260503131215 42 344 1.7 2.6 0.00 0.00 0.00 60 1012.8
20260503130712 42 47 0.9 1.7 0.00 0.00 0.00 62 1012.8
20260503130209 41 23 0.9 2.6 0.00 0.00 0.00 63 1012.8
20260503120135 40 36 0.0 1.7 0.00 0.00 0.00 66 1012.8